TimeCDT,TemperatureF,Dew PointF,Humidity,Sea Level PressureIn,VisibilityMPH,Wind Direction,Wind SpeedMPH,Gust SpeedMPH,PrecipitationIn,Events,Conditions,WindDirDegrees,DateUTC
12:56 AM,66.0,62.1,87,30.15,4.0,Calm,Calm,-,N/A,,Clear,0,2012-10-14 05:56:00
1:56 AM,66.0,61.0,84,30.14,6.0,SE,4.6,-,N/A,,Haze,140,2012-10-14 06:56:00
2:56 AM,66.9,61.0,81,30.13,8.0,SE,5.8,-,N/A,,Clear,140,2012-10-14 07:56:00
3:56 AM,66.9,61.0,81,30.13,8.0,SE,6.9,-,N/A,,Clear,140,2012-10-14 08:56:00
4:56 AM,66.0,61.0,84,30.12,6.0,SE,5.8,-,N/A,,Haze,140,2012-10-14 09:56:00
5:56 AM,66.0,62.1,87,30.12,5.0,SE,5.8,-,0.01,,Clear,140,2012-10-14 10:56:00
6:16 AM,66.2,62.6,88,30.14,5.0,SSE,4.6,-,N/A,,Partly Cloudy,150,2012-10-14 11:16:00
6:29 AM,66.2,62.6,88,30.14,4.0,SE,4.6,-,N/A,,Mostly Cloudy,140,2012-10-14 11:29:00
6:37 AM,66.2,62.6,88,30.13,4.0,SSE,5.8,-,N/A,,Mostly Cloudy,150,2012-10-14 11:37:00
6:56 AM,66.0,62.1,87,30.13,3.0,SE,6.9,-,N/A,,Overcast,140,2012-10-14 11:56:00
7:56 AM,68.0,64.0,87,30.14,4.0,SSE,4.6,-,N/A,,Overcast,150,2012-10-14 12:56:00
8:56 AM,71.1,64.0,78,30.16,6.0,SSE,4.6,-,N/A,,Haze,160,2012-10-14 13:56:00
9:35 AM,73.4,64.4,73,30.18,9.0,SSE,5.8,-,N/A,,Scattered Clouds,150,2012-10-14 14:35:00
9:56 AM,75.0,64.9,71,30.17,9.0,SSE,3.5,-,N/A,,Partly Cloudy,160,2012-10-14 14:56:00
10:56 AM,78.1,66.0,66,30.18,10.0,Calm,Calm,-,N/A,,Partly Cloudy,0,2012-10-14 15:56:00
11:56 AM,80.1,64.9,60,30.16,10.0,Calm,Calm,-,N/A,,Clear,0,2012-10-14 16:56:00
12:31 PM,82.4,64.4,54,30.15,10.0,Variable,3.5,-,N/A,,Mostly Cloudy,0,2012-10-14 17:31:00
12:39 PM,80.6,64.4,58,30.15,10.0,Calm,Calm,-,N/A,,Partly Cloudy,0,2012-10-14 17:39:00
12:56 PM,82.9,64.9,54,30.13,10.0,Calm,Calm,-,N/A,,Scattered Clouds,0,2012-10-14 17:56:00
1:56 PM,84.0,64.0,51,30.09,10.0,West,4.6,-,N/A,,Scattered Clouds,260,2012-10-14 18:56:00
2:56 PM,84.0,64.0,51,30.06,10.0,Calm,Calm,-,N/A,,Clear,0,2012-10-14 19:56:00
3:56 PM,84.0,64.9,53,30.04,10.0,Calm,Calm,-,N/A,,Partly Cloudy,0,2012-10-14 20:56:00
4:56 PM,82.0,66.0,58,30.02,10.0,SSE,3.5,-,N/A,,Clear,150,2012-10-14 21:56:00
5:56 PM,77.0,69.1,76,30.01,10.0,SSE,3.5,-,N/A,,Clear,150,2012-10-14 22:56:00
6:56 PM,75.9,66.9,74,29.99,10.0,SSE,3.5,-,N/A,,Clear,160,2012-10-14 23:56:00
7:56 PM,73.9,66.9,79,30.02,10.0,Calm,Calm,-,N/A,,Scattered Clouds,0,2012-10-15 00:56:00
8:56 PM,73.9,66.0,76,30.02,10.0,SW,3.5,-,N/A,,Clear,220,2012-10-15 01:56:00
9:56 PM,73.9,66.9,79,30.03,10.0,Calm,Calm,-,N/A,,Clear,0,2012-10-15 02:56:00
10:56 PM,72.0,66.0,81,30.02,8.0,Calm,Calm,-,N/A,,Clear,0,2012-10-15 03:56:00
11:56 PM,71.1,66.0,84,30.01,7.0,Calm,Calm,-,N/A,,Clear,0,2012-10-15 04:56:00